DW9425 Weather Reports


time (UTC)temp
C
wind
direction
speed
KPH
gust
KPH
rain 1hr
cm
rain 24hr
cm
rain mn
cm
humidity
%
barometer
mb
20260506091554 3 263 6.4 16.1 0.00 0.46 0.00 88 1014.1
20260506090049 3 221 4.8 14.5 0.00 0.46 0.00 87 1014.1
20260506084546 3 193 1.6 6.4 0.00 0.46 0.00 87 1014.1
20260506083044 3 188 0.0 6.4 0.00 0.46 0.00 87 1014.0
20260506081541 4 187 0.0 4.8 0.00 0.46 0.00 87 1014.2
20260506073037 4 222 0.0 3.2 0.00 0.46 0.00 87 1014.5
20260506071534 5 222 0.0 9.7 0.00 0.46 0.00 87 1014.6
20260506061526 5 205 0.0 9.7 0.00 0.46 0.00 90 1014.6
20260506044520 5 254 8.0 24.1 0.15 0.43 0.43 86 1015.1
20260506043016 6 74 1.6 6.4 0.10 0.38 0.38 89 1014.5
20260506041514 6 71 3.2 16.1 0.05 0.33 0.33 87 1014.0
20260506040027 5 67 8.0 14.5 0.03 0.30 0.30 88 1013.7
20260506034512 5 355 1.6 14.5 0.03 0.28 0.28 86 1014.0
20260506033010 6 347 4.8 14.5 0.15 0.28 0.28 86 1014.0
20260506031508 6 323 8.0 17.7 0.15 0.28 0.28 86 1014.0
20260506030005 6 304 6.4 17.7 0.15 0.28 0.28 86 1014.0
20260506024502 6 309 19.3 32.2 0.13 0.25 0.25 81 1013.1
20260506023101 7 300 14.5 20.9 0.00 0.13 0.13 80 1012.7
20260506021608 7 338 12.9 20.9 0.08 0.13 0.13 81 1011.9
20260506020057 7 338 8.0 19.3 0.13 0.13 0.13 84 1012.0
20260506014555 7 329 8.0 19.3 0.13 0.13 0.13 82 1012.1
20260506013054 8 316 9.7 37.0 0.13 0.13 0.13 75 1011.9
20260506011546 13 252 22.5 32.2 0.03 0.03 0.03 46 1012.0
20260506004550 14 232 12.9 22.5 0.00 0.00 0.00 41 1011.0
20260506003045 15 239 12.9 27.4 0.00 0.00 0.00 39 1011.0
20260506001547 16 240 11.3 25.7 0.00 0.00 0.00 37 1011.1
20260505234602 16 236 16.1 29.0 0.00 0.00 0.00 38 1011.0
20260505233043 15 220 16.1 33.8 0.00 0.00 0.00 39 1010.9
20260505231543 14 246 22.5 40.2 0.00 0.00 0.00 42 1010.9
20260505224542 15 223 22.5 40.2 0.00 0.00 0.00 39 1010.7
20260505223042 16 214 19.3 33.8 0.00 0.00 0.00 39 1010.8
20260505221539 17 228 17.7 35.4 0.00 0.00 0.00 37 1011.0
20260505220138 17 232 16.1 29.0 0.00 0.00 0.00 35 1011.0
20260505214559 18 223 16.1 32.2 0.00 0.00 0.00 34 1011.1
20260505213036 18 245 16.1 29.0 0.00 0.00 0.00 34 1011.4
20260505211532 17 224 19.3 29.0 0.00 0.00 0.00 36 1011.6
20260505210129 17 257 16.1 27.4 0.00 0.00 0.00 38 1011.8
20260505204524 16 240 17.7 32.2 0.00 0.00 0.00 40 1012.1
20260505203033 15 275 8.0 25.7 0.00 0.00 0.00 41 1012.2
20260505201525 16 277 17.7 27.4 0.00 0.00 0.00 38 1012.4
20260505200020 16 283 14.5 25.7 0.00 0.00 0.00 40 1012.3
20260505194517 15 297 14.5 30.6 0.00 0.00 0.00 42 1012.3
20260505193014 13 238 11.3 30.6 0.00 0.00 0.00 47 1012.4
20260505191513 13 262 12.9 25.7 0.00 0.00 0.00 44 1012.3
20260505190013 14 255 14.5 32.2 0.00 0.00 0.00 43 1012.3
20260505184512 14 226 16.1 27.4 0.00 0.00 0.00 45 1012.3
20260505183016 15 176 9.7 24.1 0.00 0.00 0.00 38 1012.3
20260505181510 15 142 12.9 22.5 0.00 0.00 0.00 38 1012.4
20260505180010 14 196 4.8 12.9 0.00 0.00 0.00 37 1012.3
20260505174513 13 188 9.7 14.5 0.00 0.00 0.00 37 1012.4
20260505173012 13 266 3.2 19.3 0.00 0.00 0.00 36 1012.7
20260505171505 13 325 4.8 20.9 0.00 0.00 0.00 36 1012.6
20260505170005 13 213 4.8 14.5 0.00 0.00 0.00 37 1012.8
20260505164502 12 211 8.0 20.9 0.00 0.00 0.00 38 1012.9
20260505163100 12 205 6.4 17.7 0.00 0.00 0.00 39 1013.1
20260505161621 12 262 8.0 16.1 0.00 0.00 0.00 40 1013.2
20260505160105 11 263 11.3 17.7 0.00 0.00 0.00 41 1013.4
20260505153056 11 271 11.3 27.4 0.00 0.00 0.00 44 1013.4
20260505151600 11 224 17.7 27.4 0.00 0.00 0.00 44 1013.4
20260505124538 7 225 0.0 0.0 0.00 0.00 0.00 46 1013.4
20260505123033 7 225 0.0 3.2 0.00 0.00 0.00 45 1013.4
20260505121529 7 225 0.0 4.8 0.00 0.00 0.00 44 1013.2
20260505120031 8 225 3.2 8.0 0.00 0.00 0.00 42 1013.1
20260505114523 9 253 0.0 4.8 0.00 0.00 0.00 41 1012.9
20260505113023 9 253 3.2 8.0 0.00 0.00 0.00 39 1013.1
20260505111517 10 253 1.6 12.9 0.00 0.00 0.00 38 1013.1
20260505101529 10 221 6.4 11.3 0.00 0.00 0.00 38 1012.9
20260505100019 11 269 1.6 3.2 0.00 0.00 0.00 37 1012.8
20260505094508 11 269 1.6 4.8 0.00 0.00 0.00 37 1012.8
20260505093012 11 269 0.0 4.8 0.00 0.00 0.00 35 1013.0